#timestamp,LO_Frequency,Hit,StdDev 
1624957215.9,286047002.0,N
1624957235.7,286047000.6,N
1624957255.5,286046998.1,N
1624957275.4,286047001.2,N
1624957295.2,286047001.0,N
1624957315.1,286046998.2,N
1624957316.0,286046998.2,N
1624957335.8,286047000.2,N
1624957355.6,286047000.4,N
1624957375.5,286046998.2,N
1624957395.3,286046996.6,N
1624957415.1,286046997.0,N
1624957435.9,286046997.4,N
1624957455.7,286046997.5,N
1624957475.6,286046997.8,N
1624957495.4,286046997.7,N
1624957515.2,286046996.8,N
1624957535.1,286046997.0,N
1624957536.0,286046997.0,N
1624957555.8,286046996.6,N
1624957575.7,286046996.6,N
1624957595.5,286046996.9,N
1624957615.3,286046998.4,N
1624957635.2,286047000.5,N
1624957655.0,286047000.6,N
1624957655.9,286047000.6,N
1624957675.8,286046998.2,N
1624957695.6,286046998.6,N
1624957715.4,286046998.7,N
1624957735.3,286047000.9,N
1624957755.1,286046999.9,N
1624957775.8,286047000.3,N
1624957795.7,286047000.9,N
1624957815.5,286046998.2,N
1624957835.4,286046998.8,N
1624957855.2,286047000.7,N
1624957875.0,286046998.5,N
1624957875.9,286046998.5,N
1624957895.8,286046996.9,N
1624957915.6,286046999.0,N
1624957935.4,286046998.4,N
1624957955.3,286046996.6,N
1624957975.1,286046996.7,N
1624957995.9,286046997.5,N
1624958015.7,286046997.2,N
1624958035.5,286046998.4,N
1624958055.4,286046998.4,N
1624958075.2,286046998.7,N
1624958095.0,286046999.1,N
1624958095.9,286046999.1,N
1624958115.8,286046997.3,N
1624958135.6,286046996.5,N
1624958155.5,286046999.5,N
1624958175.3,286046998.6,N
1624958195.1,286046999.0,N
1624958215.9,286046999.5,N
1624958235.7,286046999.1,N
1624958255.5,286046999.5,N
1624958275.4,286047000.2,N
1624958295.2,286046999.2,N
1624958315.1,286046998.7,N
1624958316.0,286046998.7,N
1624958335.8,286047000.6,N
1624958355.6,286047002.4,N
1624958375.5,286047002.1,N
1624958395.3,286047002.7,N
1624958415.1,286047000.4,N
1624958435.9,286046998.2,N
1624958455.7,286047001.1,N
1624958475.6,286047000.9,N
1624958495.4,286046998.9,N
1624958515.2,286046999.5,N
1624958535.1,286046997.0,N
1624958536.0,286046997.0,N
1624958555.8,286046998.3,N
1624958575.6,286047000.1,N
1624958595.5,286047004.0,N
1624958615.3,286047000.1,N
1624958635.2,286047000.1,N
1624958655.4,286047001.7,N
1624958675.3,286047002.3,N
1624958695.1,286046998.1,N
1624958715.9,286046999.1,N
1624958735.7,286046998.7,N
1624958755.5,286047000.1,N
1624958775.4,286047002.5,N
1624958795.2,286047004.0,N
1624958815.1,286047002.7,N
1624958816.0,286047002.7,N
1624958835.8,286047000.0,N
1624958855.6,286047002.6,N
1624958875.5,286047001.5,N
1624958895.3,286047001.8,N
1624958915.1,286047002.1,N
1624958935.9,286047002.0,N
1624958955.7,286047001.5,N
1624958975.6,286047002.9,N
1624958995.4,286047005.3,N
1624959015.2,286047003.8,N
1624959035.1,286047001.8,N
1624959036.0,286047001.8,N
1624959055.8,286047003.9,N
1624959075.6,286047004.0,N
1624959095.5,286047003.9,N
1624959115.3,286047001.7,N
1624959135.2,286047001.5,N
1624959155.9,286047003.6,N
1624959175.7,286047005.6,Y
1624959195.6,286047001.8,P
1624959215.4,286047001.9,P
1624959235.3,286047003.4,P
1624959255.1,286047003.5,Y
1624959275.8,286047002.6,P
1624959295.7,286047001.5,P
1624959315.5,286047002.3,P
1624959335.4,286047011.9,Y
1624959355.2,286046998.3,P
1624959375.0,286047000.7,N
1624959375.9,286047000.7,N
1624959395.8,286046998.2,N
1624959415.6,286046998.6,N
1624959435.4,286047000.7,N
1624959455.3,286046998.8,N
1624959475.1,286046998.1,N
1624959495.9,286047000.8,N
1624959515.7,286047000.3,N
1624959535.5,286046998.4,N
1624959555.4,286046998.6,N
1624959575.2,286047001.1,N
1624959595.1,286047001.2,N
1624959596.0,286047001.2,N
1624959615.8,286046998.7,N
1624959635.6,286046998.1,N
1624959655.5,286047001.2,N
1624959675.3,286046998.3,N
1624959695.1,286047000.3,N
1624959715.9,286047000.7,N
1624959735.7,286047000.4,N
1624959755.6,286046999.7,N
1624959775.4,286047000.3,N
1624959795.2,286047000.9,N
1624959815.1,286047001.0,N
1624959816.0,286047001.0,N
1624959835.8,286046998.5,N
1624959855.7,286046998.1,N
1624959875.5,286046998.9,N
1624959895.4,286046999.3,N
1624959915.2,286046999.5,N
1624959935.0,286046999.0,N
1624959935.9,286046999.0,N
1624959955.8,286046999.5,N
1624959975.6,286046999.1,N
1624959995.5,286046998.8,N
1624960015.3,286046999.6,N
1624960035.1,286046996.5,Y
1624960055.9,286046999.5,P
1624960075.7,286046996.6,P
1624960095.5,286046997.1,N
1624960115.4,286046997.9,N
1624960135.2,286046996.4,N
1624960155.1,286046993.6,Y
1624960156.0,286046993.6,P
1624960175.8,286046996.8,N
1624960195.6,286046997.8,N
1624960215.5,286046997.7,N
1624960235.3,286046998.0,N
1624960255.1,286046993.4,Y
1624960275.9,286046996.6,P
1624960295.7,286046999.1,P
1624960315.6,286046999.2,N
1624960335.4,286046999.1,N
1624960355.2,286046999.6,N
1624960375.1,286046997.7,N
1624960376.0,286046997.7,N
1624960395.8,286046998.9,N
1624960415.6,286047001.1,N
1624960435.5,286047000.7,N
1624960455.3,286047000.7,N
1624960475.2,286047000.5,N
1624960495.0,286047000.1,N
1624960495.9,286047000.1,N
1624960515.7,286046999.8,N
1624960535.6,286047000.9,N
1624960555.4,286047001.0,N
1624960575.3,286047000.3,N
1624960595.1,286047001.1,N
1624960596.0,286047001.1,N
1624960615.8,286047000.3,N
1624960635.7,286047000.6,N
1624960655.5,286047000.8,N
1624960675.3,286046998.8,N
1624960695.2,286046998.7,N
1624960715.0,286046998.2,N
1624960715.9,286046998.2,N
1624960735.8,286046998.5,N
1624960755.6,286046998.9,N
1624960775.4,286046997.1,N
1624960795.3,286046996.9,N
